{"data":{"norad_id":62515,"intl_designator":"2025-004E","name":"STARLINK-11508 [DTC]","alt_names":[],"object_type":"PAYLOAD","status":"ACTIVE","operator":null,"country":"US","launch_date":"2025-01-08","launch_site_code":"AFETR","launch_vehicle":null,"mission":null,"orbit_class":"UNKNOWN","rcs_meters":null,"size_class":null,"mass_kg":null,"dimensions":null,"purposes":["comms"],"wikipedia_slug":null,"has_3d_model":false,"image_url":null,"decayed_at":null,"tle_current":{"epoch":"2026-05-25T04:48:19.052928Z","epoch_age_seconds":58072,"freshness":"FRESH","line1":"1 62515U 25004E   26145.20022052  .00274177  00000+0  20662-2 0  9996","line2":"2 62515  43.0008 329.3712 0002449 277.0107  83.0482 15.70889502 79248","mean_motion":15.70889502,"eccentricity":0.0002449,"inclination_deg":43.0008,"raan_deg":329.3712,"arg_perigee_deg":277.0107,"mean_anomaly_deg":83.0482,"bstar":0.0020662,"rev_number":7924,"period_min":91.667809745157,"perigee_km":354.70430256068,"apogee_km":358.00285604642,"semimajor_km":6734.4905793036,"source":"CELESTRAK","updated_at":"2026-05-25T13:38:19.702398Z"}}}